World > North America > United States > Colorado > Winter Park   Town of Winter Park, CO

Winter Park, CO Hourly Weather Updates

Feedback E-mail the Weather

Quick Clicks

Winter Park, CO Weather Maps

°F °C°F °C
Winter Park Weather Map
UTC Time: 4/23/2024, 08:41
Your Time:

Winter Park, CO Regional Weather

Expires:202404230900;;227598
ASUS45 KBOU 230810
RWRCO 

WEATHER ROUNDUP FOR COLORADO
NATIONAL WEATHER SERVICE DENVER/BOULDER CO
200 AM MDT TUE APR 23 2024

NOTE: "FAIR" INDICATES FEW OR NO CLOUDS BELOW 12000 FEET WITH NO
SIGNIFICANT WEATHER AND/OR OBSTRUCTIONS TO VISIBILITY.


COZ009-010-012-014-032>034-037-058>063-230900-
...CENTRAL COLORADO...
  
CITY           SKY/WX    TMP DP  RH WIND       PRES   REMARKS
ASPEN          LGT RAIN  50  31  48 S12       30.10S                  
BUENA VISTA    FAIR      46  29  52 NW17      30.09S                  
COPPER MTN     FAIR      34  28  80 SW7       30.25F WCI  28          
BERTHOUD PASS  FAIR      27  19  74 NW30G37   30.20F WCI  10          
DAKOTA HILL    FAIR      34  19  55 CALM      30.17F                  
COTTONWOOD PAS FAIR      43  25  49 CALM      30.17S                  
GUNNISON       MOCLDY    43  25  49 CALM      30.10S                  
GRANBY         FAIR      42  20  41 SE3       30.08S                  
KREMMLING      FAIR      43  27  52 W7        30.06F                  
LEADVILLE      CLOUDY    35  30  82 NE7       30.18F WCI  29          
MONARCH PASS   FAIR      34  19  55 W20       30.37F WCI  22          
SALIDA         FAIR      46  23  40 NW6       30.08R                  
SUNLIGHT       CLOUDY    36  23  60 W8        30.25S                  
WILKERSON PASS FAIR      36  27  69 W16G22    30.26S                  
$$


SKY/WX - Weather  TMP - Temperature  DP - Dew Point  RH - Humidity
WIND - Wind Direction/Speed PRES - Barometric Pressure VSB - Visibility
WCI - Wind Chill Index E13G22 Wind - East Wind 13 mph/Gusts of 22 mph

Trending Headlines

Trending Entertainment Headlines

Winter Park Radar Loop

Use the map search tool if you want to place a location marker on the radar map...

Winter Park Quick Facts

National Two Day Weather Forecast


E-mail the Winter Park Weather Forecast

Voice your opinion or tell us about page issues...